STARLINK-11629, 63104

Orbit data source: Space-Track

STARLINK-11629, 63104 is a payload satellite owned by SpaceX/Seattle (US) in LEO that was launched on Thu, 27 Feb 2025 UTC via an FALCON 9 launch vehicle from the Air Force Eastern Test Range (AFETR). Payload-class satellites include a variety of spacecraft equipped with specific instruments for various scientific and technological missions. These include communications satellites like Starlink; space stations such as the ISS; scientific satellites like the Hubble; Earth observation satellites from companies like Planet Labs, Umbra, and HawkEye 360; GPS; miniature CubeSats for education and research; and military/defense satellites.

Loading next visibility...
Identifier
63104, 2025-039A
Orbit
LEO
Country
Flag of USUS
Related business
Manufacturer
SpaceX/Seattle
Mission
Operational Commercial Communications
Bus & Motor
STARLINK V2MD, Unknown motor
Mass
960 kg wet, ~910 kg dry
Launch date (UTC)
2025-02-27 (1 year ago)
Launch vehicle
FALCON 9
Launch site
Air Force Eastern Test Range (AFETR)
Object type
Payload
Rocket body
Debris
Shape & HBR
Box + 2 Pan, 18.1 m
Radar Cross Section
36.964 m², Large (>1 m²)

Expand to show TLE details & history
Last TLE update: 10 hours ago

TLE from 10 hours ago
0 STARLINK-11629
1 63104U 25039A   26150.87459995  .00263224  00000-0  19774-2 0  9992
2 63104  43.0004 101.2279 0001616 234.0738 125.9980 15.70997921 72542
Epoch: 2026-05-30T20:59Z
TLE epoch observation values (Epoch: 2026-05-30T20:59:25.435Z)
Latitude
-0.00002°
Longitude
-102.01246°
Altitude
356.455 km
Speed
7.697 km/s
True Right ascension
06h 44m 54s
True Declination
0° 00' 00"
Sunlit
Object was in daylight at epoch
Visualization orbit readout
Latitude
Unknown
Longitude
Unknown
Altitude
Unknown
Speed
Unknown
Apparent Right ascension
Unknown
Apparent Declination
Unknown
Sunlit
N/A
Visualization observer readout
Local Sidereal Time
16:36:05
Azimuth
Unknown
Elevation
Unknown
Doppler factor
Unknown
Orbital elements
Apogee altitude
359.114 km
Perigee altitude
356.937 km
Semi-major axis
6,736.162 km
Eccentricity
0.00016
Inclination
43.0004°
RAAN
101.2279°
Arg. of periapsis
234.0738°
True anomaly
126.01298°
Mean anomaly
125.998°
Eccentric anomaly
126.00549°
Mean motion
3.92577 °/min
Orbital period
91.7 mins
BSTAR
0.0019774
Loading maneuver chart data...
Computing Atmospheric mass density...
Loading historical data...
Loading historical data...
Loading historical data...
Loading historical data...
Loading historical data...
Loading historical data...
Loading historical data...

Documentation

Showing up to 5 results
|